Kapisillit

KL  EN  DA
ASIAQ
Weather Now GREENLAND SURVEY
Updated [WGT/WGST] Temperature [°C] Wind [m/s] Air pressure [hPa] Relative humidity [%] Precipitation [mm]
Present Wind chill Speed Max
27.09 02:00-2,10,01,2 ⇐3,31010660,0
27.09 01:00-2,5-6,43,0 ⇐4,11010660,0
27.09 00:00-3,2-5,91,8 ⇐3,11010750,0
26.09 23:00-2,9-5,71,9 ⇐2,81010710,0
26.09 22:00-2,2-4,51,6 ⇐2,51010650,0
26.09 21:00-0,5-2,01,3 ⇐2,01009460,0
26.09 20:00-0,6-2,51,5 ⇐3,01009540,2
26.09 19:000,50,00,8 ⇗1,81009590,0
26.09 18:002,60,01,0 ⇖2,11009410,0
26.09 17:000,9-2,42,9 ⇐4,91008400,0
26.09 16:000,5-3,33,4 ⇐4,41008440,0
26.09 15:00-0,3-4,74,2 ⇐5,81008510,0
26.09 14:00-0,7-5,24,0 ⇐5,11007580,0
26.09 13:00-1,5-6,03,8 ⇐5,31008630,0
26.09 12:00-1,3-4,92,9 ⇐4,31008580,0
26.09 11:00-2,5-6,83,4 ⇐5,31007590,0
26.09 10:00-3,4-6,82,3 ⇐4,51007630,2
26.09 09:00-3,10,00,8 ⇗1,91007650,0
26.09 08:00-3,90,00,9 ⇑3,01007610,0
26.09 07:00-4,4-8,42,6 ⇐5,31006620,0
26.09 06:00-3,9-7,92,8 ⇐4,31006600,0
26.09 05:00-4,2-7,32,0 ⇐3,31006700,0
26.09 04:00-4,3-8,73,1 ⇐4,41006620,0
26.09 03:00-4,3-8,52,9 ⇐5,01006680,0
26.09 02:00-4,5-7,31,7 ⇙3,41006760,0
Position: (64.4325,-50.27175)

[Back]